User: anonymous   Login
Location: Noordwijk
(52.2400°N, 4.4500°E)
Time: 10:43:26
(UTC+00:00)
Language:

FO-99 - Orbit

View from above orbital plane
View from above orbital plane
View from above satellite
View from above satellite

Ground track
Ground track

The orbit data is extracted from the following two-line orbital elements,

1 43937U 19003F   22333.54081582  .00015086  00000-0  43792-3 0  9993
2 43937  97.1143   0.7803 0016256 283.8547  76.0888 15.35459018215262
Epoch (UTC): 29 November 2022 12:58:46
Eccentricity: 0.0016256
inclination: 97.1143°
perigee height: 448 km
apogee height: 470 km
right ascension of ascending node: 0.7803°
argument of perigee: 283.8547°
revolutions per day: 15.35459018
mean anomaly at epoch: 76.0888°
orbit number at epoch: 21526

The dashed part of the orbit path shows where the satellite is in the earth's shadow,  

DLR